Tracking 35331 objects as of 15-Sep-2026
HD Live streaming from Space Station
objects crossing your sky now

TITAN 34D R/B(2)

Track TITAN 34D R/B(2) now!


NORAD ID: 19983
Int'l Code: 1989-035C
Launch date: May 10, 1989
Source: United States (US)
Launch site: AIR FORCE EASTERN TEST RANGE (AFETR)

Note: This is a ROCKET BODY
Your satellite tracking list
Your tracking list is empty




NASA's NSSDC Master Catalog

Two Line Element Set (TLE):
1 19983U 89035C   26257.72377006 -.00000408  00000-0  00000-0 0  9992
2 19983   8.2520   5.2001 1060100  58.0650 311.7797  0.99427880 26380
Source of the keplerian elements: AFSPC